Regional Weather Roundup
Issued by NWS Newport/Morehead, NC

Current Version | Previous Version | Graphics & Text | Print | Product List | Glossary Off
Versions: 1 2 3 4 5 6 7 8 9 10 11 12 13 14 15 16 17 18 19 20 21 22 23 24 25 26 27 28 29 30 31 32 33 34 35 36 37 38 39 40 41 42 43 44 45 46 47
000 ASUS42 KMHX 190325 RWRMHX WEATHER ROUNDUP FOR EASTERN NORTH CAROLINA NATIONAL WEATHER SERVICE NEWPORT/MOREHEAD CITY NC 1100 PM EDT FRI AUG 18 2017 NOTE: "FAIR" INDICATES FEW OR NO CLOUDS BELOW 12,000 FEET WITH NO SIGNIFICANT WEATHER AND/OR OBSTRUCTIONS TO VISIBILITY NCZ015>017-031-032-045>047-102-103-190400- NORTH COAST CITY SKY/WX TMP DP RH WIND PRES REMARKS EDENTON FAIR 83 79 86 S9 29.91S ELIZABETH CITY FAIR 83 80 91 S9 29.90R KITTY HAWK FAIR 82 77 84 CALM 29.91S MANTEO FAIR 82 78 87 SW14 29.92F $$ NCZ045>047-081-094-103-104-190400- CENTRAL COAST CITY SKY/WX TMP DP RH WIND PRES REMARKS FRISCO FAIR 84 82 94 SW12 29.95R HX 100 $$ NCZ095-097-098-100-101-190400- SOUTHERN COAST CITY SKY/WX TMP DP RH WIND PRES REMARKS BEAUFORT MOCLDY 83 82 97 SW16G25 29.94R CEDAR ISLAND NOT AVBL JACKSONVILLE FAIR 82 79 90 SW7 29.93R PINEY ISLAND FAIR N/A N/A N/A S12 29.93R WILMINGTON FAIR 83 79 88 SW9 29.93R $$ NCZ011>013-027>030-043-044-078>080-089-090>093-098-190400- COASTAL PLAIN CITY SKY/WX TMP DP RH WIND PRES REMARKS AHOSKIE N/A 79 78 97 S6 29.88S CLINTON FAIR 82 80 91 S3 29.92S ELIZABETHTOWN NOT AVBL GOLDSBORO CLEAR 84 82 94 S7 29.89R HX 101 GREENVILLE FAIR 82 79 89 SW9 29.92S HAVELOCK FAIR 82 79 90 SW12 29.94R KENANSVILLE FAIR 81 77 89 CALM 29.92S KINSTON FAIR 83 76 80 S8 29.92S NEW BERN FAIR 81 79 94 S7 29.94R RICHLANDS FAIR 80 77 90 S6 29.93R ROCKY MOUNT FAIR 83 75 77 S8 29.89R WASHINGTON FAIR 82 78 85 S6 29.91S WHITEVILLE FAIR 82 78 86 S6 29.93S $$ AMZ130-135-150-152-154-156-158-170-250-252-270-ANZ085-086-088-633-658-670-190400- MARINE OBSERVATIONS STATION/POSITION TIME TEMP WIND PRES WAVE SWELL AIR SEA DIR/SP/G HT/PER HT/PER (UTC) (F) (DEG/KT/KT) (MB) (FT/S) (FT/S) CHESAPEAKE LIGHT NOT AVBL 64 E VA BEACH 0250 80 78 200/ 16/ 17 1013.4 4/ 4 2/ 8 DUCK 0300 83 74 190/ 15/ 18 1012.2 2 E DUCK 0300 78 N/A 2/ 8 OREGON INLET 0300 83 79 190/ 18/ 21 1013.3 13E OREGON INLT 0248 80 N/A 3/ 5 2/ 7 HATTERAS CG 0300 83 84 220/ 11/ 14 1014.1 DIAMOND BUOY 0250 85 85 220/ 19/ 23 1013.9 5/ 5 2/ 9 CAPE LOOKOUT 0300 83 220/ 11/ 14 1013.6 BEAUFORT LAB 0300 84 82 220/ 8/ 14 1013.2 30 SE NEW RVR IN 0308 82 84 230/ 17/ 25 1013.9 30 SE NEW RVR IN 0313 84 N/A 5/ 5 27 SE WRIGHTSVLE 0308 84 84 200/ 17/ 23 1013.6 5 SE WRIGHTSVLE 0308 84 84 210/ 12/ 19 1013.5 225 S CAPE HAT 0250 84 84 220/ 14/ 16 1016.6 3/ 8 2/ 8 41 SE CHARLESTON 0310 84 85 210/ 16/ 19 1013.7 $$

USA.gov is the U.S. government's official web portal to all federal, state and local government web resources and services.